When you browse on this site, cookies collect data to enhance your experience and personalize the content and advertising you see.
Visit our Privacy Policy to learn more. By continuing to use the site, you agree to this use of cookies and data.
EN

Hourly Weather Nagyatad

Today, 9 August, Sunday

Time Temperature Precipitation Wind Pressure Humidity
00:00 +24°C° 0 mm 1 mps 752 mmHg 70%
01:00 +24°C° 0 mm 1 mps 752 mmHg 71%
02:00 +23°C° 0 mm 1 mps 752 mmHg 71%
03:00 +23°C° 0 mm 2 mps 752 mmHg 71%
04:00 +21°C° 0 mm 2 mps 751 mmHg 71%
05:00 +23°C° 0 mm 2 mps 752 mmHg 69%
06:00 +24°C° 0 mm 2 mps 752 mmHg 67%
07:00 +25°C° 0 mm 2 mps 752 mmHg 64%
08:00 +27°C° 0 mm 2 mps 752 mmHg 58%
09:00 +29°C° 0 mm 2 mps 752 mmHg 52%
10:00 +31°C° 0 mm 2 mps 752 mmHg 45%
11:00 +32°C° 0 mm 2 mps 752 mmHg 43%
12:00 +34°C° 0 mm 2 mps 751 mmHg 40%
13:00 +35°C° 0 mm 3 mps 751 mmHg 38%
14:00 +34°C° 0 mm 3 mps 750 mmHg 38%
15:00 +34°C° 0 mm 3 mps 750 mmHg 39%
16:00 +34°C° 0 mm 3 mps 750 mmHg 39%
17:00 +31°C° 0 mm 2 mps 750 mmHg 45%
18:00 +29°C° 0 mm 2 mps 750 mmHg 51%
19:00 +27°C° 0 mm 1 mps 750 mmHg 57%
20:00 +26°C° 0 mm 1 mps 750 mmHg 59%
21:00 +25°C° 0 mm 1 mps 750 mmHg 60%
22:00 +24°C° 0 mm 1 mps 750 mmHg 62%
23:00 +24°C° 0 mm 1 mps 750 mmHg 63%

Tomorrow, 10 August, Monday

Time Temperature Precipitation Wind Pressure Humidity
00:00 +24°C° 0 mm 1 mps 750 mmHg 65%
01:00 +23°C° 0 mm 1 mps 750 mmHg 66%
02:00 +23°C° 0 mm 1 mps 750 mmHg 69%
03:00 +22°C° 0 mm 1 mps 750 mmHg 72%
04:00 +22°C° 0 mm 1 mps 750 mmHg 75%
05:00 +23°C° 0 mm 1 mps 750 mmHg 73%
06:00 +24°C° 0 mm 1 mps 750 mmHg 71%
07:00 +26°C° 0 mm 1 mps 750 mmHg 69%
08:00 +28°C° 0 mm 1 mps 751 mmHg 63%
09:00 +30°C° 0 mm 1 mps 751 mmHg 57%
10:00 +32°C° 0 mm 1 mps 751 mmHg 51%
11:00 +32°C° 0 mm 1 mps 750 mmHg 47%
12:00 +33°C° 0 mm 1 mps 750 mmHg 44%
13:00 +35°C° 0 mm 2 mps 750 mmHg 40%
14:00 +33°C° 0 mm 1 mps 749 mmHg 41%
15:00 +33°C° 0 mm 1 mps 749 mmHg 42%
16:00 +33°C° 0 mm 1 mps 749 mmHg 43%
17:00 +31°C° 0 mm 1 mps 749 mmHg 49%
18:00 +29°C° 0 mm 1 mps 749 mmHg 54%
19:00 +28°C° 0 mm 1 mps 749 mmHg 59%
20:00 +27°C° 0 mm 1 mps 749 mmHg 61%
21:00 +26°C° 0 mm 1 mps 750 mmHg 63%
22:00 +25°C° 0 mm 1 mps 750 mmHg 65%
23:00 +23°C° 0 mm 0 mps 750 mmHg 67%

Day after tomorrow, 11 August, Tuesday

Time Temperature Precipitation Wind Pressure Humidity
00:00 +22°C° 0 mm 0 mps 750 mmHg 68%
01:00 +22°C° 0 mm 0 mps 750 mmHg 70%
02:00 +21°C° 0 mm 0 mps 750 mmHg 72%
03:00 +21°C° 0 mm 0 mps 750 mmHg 73%
04:00 +21°C° 0 mm 0 mps 750 mmHg 75%
05:00 +22°C° 0 mm 0 mps 750 mmHg 72%
06:00 +23°C° 0 mm 0 mps 750 mmHg 70%
07:00 +24°C° 0 mm 0 mps 750 mmHg 67%
08:00 +26°C° 0 mm 0 mps 751 mmHg 61%
09:00 +28°C° 0 mm 0 mps 751 mmHg 55%
10:00 +30°C° 0 mm 0 mps 751 mmHg 48%
11:00 +31°C° 0 mm 0 mps 751 mmHg 46%
12:00 +32°C° 0 mm 0 mps 751 mmHg 43%
13:00 +32°C° 0 mm 0 mps 750 mmHg 40%
14:00 +32°C° 0 mm 0 mps 750 mmHg 41%
15:00 +31°C° 0 mm 0 mps 750 mmHg 42%
16:00 +31°C° 0 mm 0 mps 750 mmHg 43%
17:00 +29°C° 0 mm 0 mps 750 mmHg 48%
18:00 +28°C° 0 mm 0 mps 750 mmHg 53%
19:00 +26°C° 0 mm 0 mps 750 mmHg 58%
20:00 +26°C° 0.3 mm 1 mps 750 mmHg 65%
21:00 +25°C° 0.3 mm 1 mps 750 mmHg 73%
22:00 +24°C° 0.3 mm 2 mps 750 mmHg 80%
23:00 +23°C° 0.1 mm 1 mps 750 mmHg 81%

12 August, Wednesday

Time Temperature Precipitation Wind Pressure Humidity
00:00 +23°C° 0.1 mm 1 mps 750 mmHg 83%
01:00 +23°C° 0.1 mm 1 mps 750 mmHg 84%
02:00 +22°C° 0.1 mm 1 mps 750 mmHg 86%
03:00 +22°C° 0.1 mm 1 mps 750 mmHg 88%
04:00 +21°C° 0.1 mm 1 mps 750 mmHg 90%
05:00 +22°C° 0.1 mm 1 mps 750 mmHg 88%
06:00 +23°C° 0.1 mm 1 mps 751 mmHg 87%
07:00 +24°C° 0.1 mm 1 mps 751 mmHg 86%
08:00 +25°C° 0 mm 1 mps 751 mmHg 77%
09:00 +27°C° 0 mm 2 mps 751 mmHg 68%
10:00 +29°C° 0 mm 2 mps 751 mmHg 60%
11:00 +30°C° 0.1 mm 2 mps 751 mmHg 55%
12:00 +31°C° 0.1 mm 2 mps 751 mmHg 51%
13:00 +32°C° 0.1 mm 2 mps 750 mmHg 46%
14:00 +32°C° 0 mm 2 mps 750 mmHg 47%
15:00 +32°C° 0 mm 2 mps 750 mmHg 47%
16:00 +31°C° 0 mm 2 mps 750 mmHg 47%
17:00 +30°C° 0.1 mm 2 mps 750 mmHg 53%
18:00 +28°C° 0.1 mm 2 mps 750 mmHg 59%
19:00 +27°C° 0.1 mm 2 mps 750 mmHg 64%
20:00 +26°C° 0.2 mm 2 mps 750 mmHg 67%
21:00 +25°C° 0.2 mm 1 mps 750 mmHg 69%
22:00 +24°C° 0.2 mm 1 mps 751 mmHg 71%
23:00 +23°C° 0.1 mm 1 mps 751 mmHg 72%

13 August, Thursday

Time Temperature Precipitation Wind Pressure Humidity
00:00 +23°C° 0.1 mm 1 mps 750 mmHg 74%
01:00 +23°C° 0.1 mm 1 mps 750 mmHg 75%
02:00 +22°C° 0 mm 1 mps 750 mmHg 75%
03:00 +22°C° 0 mm 1 mps 750 mmHg 75%
04:00 +22°C° 0 mm 1 mps 750 mmHg 76%
05:00 +22°C° 0 mm 1 mps 750 mmHg 74%
06:00 +23°C° 0 mm 1 mps 750 mmHg 72%
07:00 +24°C° 0 mm 2 mps 751 mmHg 70%
08:00 +26°C° 0 mm 2 mps 751 mmHg 63%
09:00 +28°C° 0 mm 2 mps 751 mmHg 56%
10:00 +29°C° 0 mm 2 mps 750 mmHg 49%
11:00 +30°C° 0 mm 2 mps 750 mmHg 45%
12:00 +31°C° 0 mm 2 mps 750 mmHg 42%
13:00 +32°C° 0 mm 2 mps 750 mmHg 39%
14:00 +32°C° 0 mm 2 mps 749 mmHg 39%
15:00 +32°C° 0 mm 2 mps 749 mmHg 40%
16:00 +32°C° 0 mm 2 mps 749 mmHg 40%
17:00 +30°C° 0.6 mm 2 mps 749 mmHg 50%
18:00 +27°C° 0.6 mm 2 mps 749 mmHg 60%
19:00 +24°C° 0.6 mm 2 mps 749 mmHg 70%
20:00 +24°C° 0.4 mm 2 mps 749 mmHg 72%
21:00 +23°C° 0.4 mm 2 mps 749 mmHg 75%
22:00 +21°C° 0.4 mm 2 mps 749 mmHg 78%
23:00 +22°C° 0.1 mm 1 mps 749 mmHg 78%

14 August, Friday

Time Temperature Precipitation Wind Pressure Humidity
00:00 +22°C° 0.1 mm 1 mps 749 mmHg 79%
01:00 +21°C° 0.1 mm 1 mps 749 mmHg 79%
02:00 +21°C° 0 mm 1 mps 749 mmHg 79%
03:00 +21°C° 0 mm 1 mps 749 mmHg 80%
04:00 +21°C° 0 mm 1 mps 749 mmHg 80%
05:00 +22°C° 0 mm 1 mps 749 mmHg 76%
06:00 +23°C° 0 mm 1 mps 749 mmHg 73%
07:00 +23°C° 0 mm 1 mps 749 mmHg 70%
08:00 +26°C° 0 mm 1 mps 749 mmHg 63%
09:00 +28°C° 0 mm 1 mps 749 mmHg 56%
10:00 +30°C° 0 mm 1 mps 749 mmHg 49%
11:00 +31°C° 0 mm 2 mps 749 mmHg 46%
12:00 +32°C° 0 mm 2 mps 749 mmHg 44%
13:00 +34°C° 0 mm 2 mps 748 mmHg 42%
14:00 +34°C° 0 mm 2 mps 748 mmHg 42%
15:00 +34°C° 0 mm 2 mps 748 mmHg 42%
16:00 +33°C° 0 mm 1 mps 748 mmHg 42%
17:00 +31°C° 0.1 mm 1 mps 748 mmHg 49%
18:00 +29°C° 0.1 mm 1 mps 748 mmHg 56%
19:00 +27°C° 0.1 mm 1 mps 748 mmHg 63%
20:00 +26°C° 0.8 mm 1 mps 748 mmHg 69%
21:00 +24°C° 0.8 mm 2 mps 748 mmHg 76%
22:00 +23°C° 0.8 mm 2 mps 748 mmHg 83%
23:00 +23°C° 0.4 mm 1 mps 748 mmHg 83%
Show more